Погода в Тогуре

Россия / Томская область     58°21′38″N   82°49′53″E
темп.,
°C
ветер,
м/с
пор.,
м/с
влажн.,
%
обл.,
%
осадки,
мм/ч
давл.,
гПа
погр.,
м
15 мая, сб
сб1501:00+12юз7164714 0.0 1015440
04:00+10зюз5117273 0.6 1014327
07:00+12зюз7147465 0.9 1014476
10:00+17з576589 0.4 1014711
13:00+21з465290 0.4 10131380
16:00+22зсз61151100 0.2 10111957
19:00+14ссв5671100 3.2 1015551
22:00+9св368771 0.0 1016311
16 мая, вс
вс1601:00+8вюв3590100 0.0 1016127
04:00+8вюв3689100 0.4 1014248
07:00+7всв4692100 4.8 1013307
10:00+7всв5990100 0.6 1013437
13:00+10в4578100 0.7 1014653
16:00+11всв4470100 0.0 1014891
19:00+10св447298 0.0 1015787
22:00+8св3480100 0.0 1017341
17 мая, пн
пн1701:00+7св2383100 0.0 1017227
04:00+6ссз238147 0.0 1018181
07:00+6с118083 0.0 1018134
10:00+10ююз1163100 0.0 1017616
13:00+14юз3457100 0.0 10161279
16:00+12ююв2380100 1.3 1013194
19:00+12зюз4987100 1.4 1012464
22:00+12зюз2492100 0.0 1011109
18 мая, вт
вт1801:00+11сз2295100 0.0 101050
04:00+10с2496100 0.0 100980
07:00+10с3691100 0.0 1009301
10:00+10ссв448991 0.0 1009482
13:00+10св4480100 0.1 1010754
16:00+10св4479100 0.1 1011694
19:00+9всв357887 0.3 1011663
22:00+8ссв228137 0.0 101210
19 мая, ср
ср1901:00+7ссв3780100 0.0 1012130
04:00+5св3965100 0.0 1013189
07:00+5св4105694 0.0 1015365
10:00+9св573282 0.0 10161035
13:00+12ссв46275 0.0 10162352
16:00+13ссз4627100 0.0 10162631
19:00+9с7765100 0.3 10161042
22:00+6ссз227257 1.0 101836